TimeEST,TemperatureF,Dew PointF,Humidity,Sea Level PressureIn,VisibilityMPH,Wind Direction,Wind SpeedMPH,Gust SpeedMPH,PrecipitationIn,Events,Conditions,WindDirDegrees,DateUTC
12:56 AM,32.0,21.0,64,30.33,10.0,Calm,Calm,-,N/A,,Overcast,0,2013-01-15 05:56:00
1:56 AM,30.9,19.9,64,30.33,10.0,WNW,4.6,-,N/A,,Overcast,290,2013-01-15 06:56:00
2:56 AM,30.9,19.9,64,30.35,10.0,NW,4.6,-,N/A,,Overcast,320,2013-01-15 07:56:00
3:56 AM,30.2,21.2,69,30.32,10.0,Calm,Calm,-,N/A,,Overcast,0,2013-01-15 08:56:00
4:56 AM,30.0,21.9,72,30.33,10.0,Calm,Calm,-,N/A,,Overcast,0,2013-01-15 09:56:00
5:56 AM,30.0,21.9,72,30.34,10.0,NW,4.6,-,N/A,,Overcast,310,2013-01-15 10:56:00
6:56 AM,28.4,21.2,74,30.33,10.0,Calm,Calm,-,N/A,,Overcast,0,2013-01-15 11:56:00
7:56 AM,28.9,23.0,78,30.37,10.0,Calm,Calm,-,N/A,,Overcast,0,2013-01-15 12:56:00
8:56 AM,30.0,23.0,75,30.39,10.0,Calm,Calm,-,N/A,,Overcast,0,2013-01-15 13:56:00
9:56 AM,30.9,23.0,72,30.39,10.0,Calm,Calm,-,0.00,,Overcast,0,2013-01-15 14:56:00
10:56 AM,32.0,21.0,64,30.38,10.0,Variable,3.5,-,N/A,,Overcast,0,2013-01-15 15:56:00
11:20 AM,33.8,23.0,65,30.35,10.0,Calm,Calm,-,N/A,,Overcast,0,2013-01-15 16:20:00
11:56 AM,32.0,21.0,64,30.35,10.0,SW,9.2,-,N/A,,Scattered Clouds,220,2013-01-15 16:56:00
12:56 PM,32.0,21.0,64,30.34,10.0,West,8.1,-,N/A,,Overcast,260,2013-01-15 17:56:00
1:56 PM,33.1,21.0,61,30.32,10.0,WSW,6.9,-,N/A,,Overcast,250,2013-01-15 18:56:00
2:56 PM,33.1,21.9,64,30.32,10.0,SW,8.1,-,N/A,,Overcast,220,2013-01-15 19:56:00
3:56 PM,33.1,21.9,64,30.31,10.0,West,8.1,-,N/A,,Overcast,260,2013-01-15 20:56:00
4:56 PM,30.9,21.0,67,30.33,10.0,WSW,9.2,-,N/A,,Clear,250,2013-01-15 21:56:00
5:56 PM,30.2,21.2,69,30.30,10.0,WSW,5.8,-,N/A,,Clear,250,2013-01-15 22:56:00
6:56 PM,30.0,19.9,66,30.31,10.0,Calm,Calm,-,N/A,,Mostly Cloudy,0,2013-01-15 23:56:00
7:56 PM,30.9,21.0,67,30.31,10.0,West,3.5,-,N/A,,Mostly Cloudy,270,2013-01-16 00:56:00
8:56 PM,30.0,21.9,72,30.27,10.0,Calm,Calm,-,N/A,,Mostly Cloudy,0,2013-01-16 01:56:00
9:56 PM,30.0,23.0,75,30.27,10.0,Calm,Calm,-,N/A,,Overcast,0,2013-01-16 02:56:00
10:56 PM,30.0,24.1,79,30.26,10.0,Calm,Calm,-,N/A,,Overcast,0,2013-01-16 03:56:00
11:56 PM,28.9,24.1,82,30.22,10.0,Calm,Calm,-,N/A,,Scattered Clouds,0,2013-01-16 04:56:00